Regional Weather Roundup
Issued by NWS

Home | Current Version | Previous Version | Text Only | Print | Product List | Glossary On
Versions: 1 2 3 4 5 6 7 8 9 10 11 12 13 14 15 16 17 18 19 20 21 22 23 24 25 26 27 28 29 30 31 32 33 34 35 36 37 38 39 40 41 42 43 44 45 46 47 48 49 50
000
ASUS45 KBOI 260610
RWRID

IDAHO REGIONAL WEATHER ROUNDUP
NATIONAL WEATHER SERVICE BOISE ID
1200 AM MDT TUE MAY 26 2015

NOTE: "FAIR" INDICATES FEW OR NO CLOUDS BELOW 12000 FEET
WITH NO SIGNIFICANT WEATHER AND/OR OBSTRUCTIONS TO VISIBILITY

IDZ012-014-260700-
SOUTHWEST IDAHO


CITY           SKY/WX    TMP DP  RH WIND       PRES   REMARKS
BOISE          MOCLDY    58  51  78 E5        29.89S
CALDWELL       MOCLDY    55  45  67 W3        29.90R
MOUNTAIN HOME  MOCLDY    59  48  67 NE8       29.89F
$$

IDZ016-017-260700-
SOUTHCENTRAL IDAHO


CITY           SKY/WX    TMP DP  RH WIND       PRES   REMARKS
BURLEY         PTCLDY    53  46  77 SW10      29.94R
JEROME         MOCLDY    57  45  64 SW8       29.95R
TWIN FALLS     MOCLDY    56  45  66 S10       29.93R
$$

IDZ019>023-260700-
SOUTHEAST IDAHO


CITY           SKY/WX    TMP DP  RH WIND       PRES   REMARKS
IDAHO FALLS    CLOUDY    53  46  77 S7        29.96F
POCATELLO      CLOUDY    55  48  77 SE5       29.96S
REXBURG        MOCLDY    52  42  69 S15G22    29.96S
$$

IDZ006-010-011-018-031-032-260700-
CENTRAL IDAHO MOUNTAINS


CITY           SKY/WX    TMP DP  RH WIND       PRES   REMARKS
MCCALL         MOCLDY    47  44  90 NE6       29.95S
HAILEY         CLOUDY    50  45  81 NW6       29.97S
STANLEY          N/A     39  37  92 S5        30.03F
SALMON         CLOUDY    52  46  82 SW3       29.96S
CHALLIS        CLOUDY    50  45  83 NW7       29.97F
$$

IDZ002-004-006-007-026-260700-
NORTHERN IDAHO


CITY           SKY/WX    TMP DP  RH WIND       PRES   REMARKS
LEWISTON       CLOUDY    64  49  57 S6        29.87S
LOWELL           N/A     54  52  93 CALM      29.93S
COEUR D`ALENE  MOCLDY    54  48  82 S6        29.90S
MULLAN PASS    MOCLDY    42  41  96 S6        29.98F
$$


USA.gov is the U.S. government's official web portal to all federal, state and local government web resources and services.